Weather History for Faribault, MN

Change the Weather History Date:

Sunday, June 30, 2013

  Actual Average Record
Temperature  
Mean Temperature 66 °F -  
Max Temperature 78 °F 81 °F 98 °F (1949)
Min Temperature 53 °F 57 °F 48 °F (2010)
Growing Degree Days 16 (Base 50)    
Moisture  
Dew Point 54 °F    
Average Humidity 70    
Maximum Humidity 100    
Minimum Humidity 41    
Precipitation  
Precipitation 0.00 in - - ()
Sea Level Pressure  
Sea Level Pressure 30.07 in    
Wind  
Wind Speed 5 mph (North)    
Max Wind Speed 12 mph    
Max Gust Speed 20 mph    
Visibility 10 miles    
Events      
Averages and records for this station are not official NWS values.
T = Trace of Precipitation, MM = Missing Value Source: NWS Daily Summary

Daily Weather History Graph

Daily Weather History Graph

Search for Another Location

Airport:

Trip Planner

Search our weather history database for the weather conditions in past years. The results will help you decide how hot, cold, wet, or windy it might be!

Date:

Astronomy

Jun. 30, 2013 Rise Set
Actual Time 5:32 AM CDT 9:01 PM CDT
Civil Twilight 4:56 AM CDT 9:37 PM CDT
Nautical Twilight 4:08 AM CDT 10:25 PM CDT
Astronomical Twilight 3:06 AM CDT 11:26 PM CDT
Moon 12:43 AM CDT (6/30) 2:06 PM CDT (6/30)
Length of Visible Light 16h 41m
Length of Day
15h 28m
Last Quarter, 45% of the Moon is Illuminated
Jun 30
Last Quarter
Jul 8
New
Jul 15
First Quarter
Jul 22
Full
Jul 29
Last Quarter

Hourly Weather History & Observations

Time (CDT) Temp. Dew Point Humidity Pressure Visibility Wind Dir Wind Speed Gust Speed Precip Events Conditions
12:01 AM 60.8 °F 53.6 °F 77% 29.98 in 10.0 mi North 3.5 mph - N/A   Clear
12:21 AM 60.8 °F 53.6 °F 77% 29.99 in 10.0 mi NNE 4.6 mph - N/A   Clear
12:41 AM 59.0 °F 53.6 °F 82% 29.99 in 10.0 mi North 4.6 mph - N/A   Clear
1:01 AM 60.8 °F 53.6 °F 77% 30.00 in 10.0 mi North 5.8 mph - N/A   Clear
1:21 AM 57.2 °F 53.6 °F 88% 30.00 in 10.0 mi North 5.8 mph - N/A   Clear
1:41 AM 57.2 °F 51.8 °F 82% 30.00 in 10.0 mi North 5.8 mph - N/A   Clear
2:01 AM 57.2 °F 51.8 °F 82% 30.00 in 10.0 mi NNE 4.6 mph - N/A   Clear
2:21 AM 57.2 °F 51.8 °F 82% 30.01 in 10.0 mi NNE 3.5 mph - N/A   Clear
2:41 AM 55.4 °F 51.8 °F 88% 30.01 in 10.0 mi North 4.6 mph - N/A   Clear
3:01 AM 55.4 °F 51.8 °F 88% 30.01 in 10.0 mi North 4.6 mph - N/A   Clear
3:21 AM 55.4 °F 50.0 °F 82% 30.02 in 10.0 mi North 4.6 mph - N/A   Clear
3:41 AM 55.4 °F 50.0 °F 82% 30.03 in 10.0 mi North 3.5 mph - N/A   Clear
4:01 AM 55.4 °F 50.0 °F 82% 30.03 in 10.0 mi North 3.5 mph - N/A   Clear
4:21 AM 55.4 °F 50.0 °F 82% 30.04 in 10.0 mi North 4.6 mph - N/A   Clear
4:41 AM 55.4 °F 50.0 °F 82% 30.04 in 10.0 mi North 4.6 mph - N/A   Clear
5:01 AM 55.4 °F 50.0 °F 82% 30.05 in 10.0 mi North 4.6 mph - N/A   Clear
5:21 AM 55.4 °F 50.0 °F 82% 30.05 in 10.0 mi North 4.6 mph - N/A   Clear
5:41 AM 53.6 °F 50.0 °F 88% 30.05 in 10.0 mi North 3.5 mph - N/A   Clear
6:01 AM 53.6 °F 50.0 °F 88% 30.06 in 10.0 mi North 2.3 mph - N/A   Clear
6:21 AM 53.6 °F 50.0 °F 88% 30.06 in 10.0 mi North 1.2 mph - N/A   Clear
6:41 AM 53.6 °F 51.8 °F 94% 30.07 in 10.0 mi North 1.2 mph - N/A   Clear
7:01 AM 55.4 °F 51.8 °F 88% 30.07 in 10.0 mi Calm Calm - N/A   Clear
7:21 AM 55.4 °F 51.8 °F 88% 30.07 in 10.0 mi Calm Calm - N/A   Scattered Clouds
7:41 AM 57.2 °F 53.6 °F 88% 30.08 in 10.0 mi North 3.5 mph - N/A   Clear
8:01 AM 59.0 °F 53.6 °F 82% 30.09 in 10.0 mi North 2.3 mph - N/A   Clear
8:21 AM 60.8 °F 53.6 °F 77% 30.10 in 10.0 mi North 2.3 mph - N/A   Clear
8:41 AM 62.6 °F 53.6 °F 72% 30.10 in 10.0 mi NNW 4.6 mph - N/A   Clear
9:21 AM 64.4 °F 55.4 °F 73% 30.11 in 10.0 mi NNW 8.1 mph - N/A   Clear
10:01 AM 66.2 °F 53.6 °F 64% 30.11 in 10.0 mi North 3.5 mph - N/A   Clear
10:41 AM 69.8 °F 55.4 °F 60% 30.10 in 10.0 mi North 9.2 mph - N/A   Clear
11:01 AM 69.8 °F 55.4 °F 60% 30.10 in 10.0 mi NNE 1.2 mph - N/A   Clear
11:41 AM 71.6 °F 53.6 °F 53% 30.10 in 10.0 mi North 8.1 mph - N/A   Clear
12:21 PM 73.4 °F 53.6 °F 50% 30.10 in 10.0 mi NNE 6.9 mph - N/A   Clear
1:01 PM 75.2 °F 50.0 °F 41% 30.10 in 10.0 mi North 9.2 mph - N/A   Clear
1:41 PM 75.2 °F 50.0 °F 41% 30.10 in 10.0 mi North 10.4 mph 19.6 mph N/A   Clear
2:01 PM 75.2 °F 50.0 °F 41% 30.10 in 10.0 mi NNE 10.4 mph 17.3 mph N/A   Clear
2:21 PM 75.2 °F 50.0 °F 41% 30.10 in 10.0 mi NNE 10.4 mph - N/A   Clear
3:01 PM 77.0 °F 51.8 °F 41% 30.09 in 10.0 mi North 8.1 mph 19.6 mph N/A   Clear
3:21 PM 77.0 °F 51.8 °F 41% 30.09 in 10.0 mi North 8.1 mph 16.1 mph N/A   Clear
4:01 PM 78.8 °F 53.6 °F 42% 30.09 in 10.0 mi North 10.4 mph - N/A   Clear
4:21 PM 78.8 °F 55.4 °F 44% 30.09 in 10.0 mi NE 10.4 mph 17.3 mph N/A   Clear
4:41 PM 78.8 °F 53.6 °F 42% 30.09 in 10.0 mi NNE 11.5 mph - N/A   Clear
5:01 PM 78.8 °F 55.4 °F 44% 30.09 in 10.0 mi NNE 8.1 mph - N/A   Clear
5:21 PM 78.8 °F 55.4 °F 44% 30.09 in 10.0 mi NNE 6.9 mph - N/A   Clear
6:01 PM 78.8 °F 55.4 °F 44% 30.09 in 10.0 mi NNE 8.1 mph - N/A   Scattered Clouds
6:41 PM 77.0 °F 55.4 °F 47% 30.09 in 10.0 mi NNE 8.1 mph - N/A   Clear
7:01 PM 75.2 °F 55.4 °F 50% 30.09 in 10.0 mi NNE 9.2 mph - N/A   Clear
7:41 PM 75.2 °F 55.4 °F 50% 30.09 in 10.0 mi NNE 3.5 mph - N/A   Clear
8:01 PM 73.4 °F 55.4 °F 53% 30.09 in 10.0 mi NNE 3.5 mph - N/A   Clear
8:21 PM 73.4 °F 55.4 °F 53% 30.10 in 10.0 mi North 2.3 mph - N/A   Clear
8:41 PM 71.6 °F 57.2 °F 60% 30.10 in 10.0 mi Calm Calm - N/A   Clear
9:21 PM 64.4 °F 60.8 °F 88% 30.11 in 10.0 mi Calm Calm - N/A   Clear
9:41 PM 64.4 °F 60.8 °F 88% 30.11 in 10.0 mi West 1.2 mph - N/A   Clear
10:01 PM 64.4 °F 59.0 °F 83% 30.12 in 10.0 mi WNW 1.2 mph - N/A   Clear
10:21 PM 62.6 °F 60.8 °F 94% 30.12 in 10.0 mi Calm Calm - N/A   Clear
10:41 PM 60.8 °F 59.0 °F 94% 30.12 in 10.0 mi Calm Calm - N/A   Clear
11:01 PM 60.8 °F 57.2 °F 88% 30.12 in 10.0 mi WNW 2.3 mph - N/A   Clear
11:21 PM 60.8 °F 59.0 °F 94% 30.12 in 10.0 mi Calm Calm - N/A   Clear
11:41 PM 59.0 °F 59.0 °F 100% 30.13 in 10.0 mi Calm Calm - N/A   Clear